Ketchikan, AK

9:46 PM AKDT on September 20, 2018 (GMT -0800)
Ketchikan International

Weather History for PAKT - March, 2018

Change the Weather History Date:

Friday, March 2, 2018

  Actual Average Record
Temperature  
Mean Temperature 34 °F -  
Max Temperature 39 °F 40 °F 50 °F (1950)
Min Temperature 30 °F 28 °F 7 °F (1976)
Degree Days  
Heating Degree Days 30    
Moisture  
Dew Point 15 °F    
Average Humidity 48    
Maximum Humidity 56    
Minimum Humidity 38    
Precipitation  
Precipitation 0.00 in - - ()
Sea Level Pressure  
Sea Level Pressure 29.97 in    
Wind  
Wind Speed 12 mph (NW)    
Max Wind Speed 18 mph    
Max Gust Speed 24 mph    
Visibility 10 miles    
Events      
Averages and records for this station are not official NWS values.
T = Trace of Precipitation, MM = Missing Value Source: NWS Daily Summary

Daily Weather History Graph

Daily Weather History Graph

Search for Another Location

Airport or City:

Astronomy

Mar. 02, 2018 Rise Set
Actual Time 6:34 AM AKST 5:24 PM AKST
Civil Twilight 5:57 AM AKST 6:01 PM AKST
Nautical Twilight 5:15 AM AKST 6:43 PM AKST
Astronomical Twilight 4:32 AM AKST 7:26 PM AKST
Moon 6:35 PM AKST (3/2) 7:11 AM AKST (3/2)
Length of Visible Light 12h 03m
Length of Day
10h 50m
Full, 99% of the Moon is Illuminated
Mar 2
Full
Mar 9
Last Quarter
Mar 17
New
Mar 24
First Quarter
Mar 31
Full

Hourly Weather History & Observations

Time (AKST) Temp. Windchill Dew Point Humidity Pressure Visibility Wind Dir Wind Speed Gust Speed Precip Events Conditions
12:53 AM 34.0 °F 24.6 °F 17.1 °F 50% 29.86 in 10.0 mi NNW 13.8 mph - N/A   Clear
1:53 AM 33.1 °F 23.0 °F 18.0 °F 54% 29.86 in 10.0 mi NNW 15.0 mph - N/A   Clear
2:53 AM 32.0 °F 22.5 °F 16.0 °F 52% 29.86 in 10.0 mi NNW 12.7 mph - N/A   Clear
3:53 AM 30.9 °F 22.2 °F 14.0 °F 50% 29.87 in 10.0 mi WNW 10.4 mph - N/A   Clear
4:53 AM 30.9 °F 21.7 °F 15.1 °F 52% 29.89 in 10.0 mi WNW 11.5 mph - N/A   Clear
5:53 AM 30.0 °F 21.1 °F 14.0 °F 51% 29.90 in 10.0 mi WNW 10.4 mph - N/A   Clear
6:02 AM 30.0 °F 20.5 °F 14.0 °F 51% 29.90 in 10.0 mi WNW 11.5 mph - N/A   Clear
6:53 AM 30.2 °F 20.8 °F 15.8 °F 55% 29.92 in 10.0 mi NW 11.5 mph - N/A   Clear
7:53 AM 32.0 °F 23.6 °F 15.8 °F 51% 29.94 in 10.0 mi NW 10.4 mph - N/A   Clear
8:53 AM 33.8 °F 25.3 °F 15.8 °F 48% 29.95 in 10.0 mi NNW 11.5 mph - N/A   Clear
9:53 AM 36.0 °F 27.5 °F 14.0 °F 41% 29.96 in 10.0 mi NNW 12.7 mph - N/A   Clear
10:53 AM 37.4 °F 29.3 °F 14.0 °F 38% 29.96 in 10.0 mi NW 12.7 mph - N/A   Clear
11:53 AM 37.4 °F 28.5 °F 15.8 °F 41% 29.96 in 10.0 mi NW 15.0 mph 23.0 mph N/A   Clear
12:53 PM 37.4 °F 28.2 °F 15.8 °F 41% 29.96 in 10.0 mi NW 16.1 mph 23.0 mph N/A   Clear
1:53 PM 39.2 °F 29.8 °F 15.8 °F 39% 29.98 in 10.0 mi NW 18.4 mph 24.2 mph N/A   Clear
2:53 PM 39.2 °F 31.2 °F 15.8 °F 39% 29.99 in 10.0 mi NW 13.8 mph - N/A   Clear
3:53 PM 37.4 °F 29.8 °F 14.0 °F 38% 30.00 in 10.0 mi NNW 11.5 mph - N/A   Clear
4:53 PM 35.6 °F 28.6 °F 15.8 °F 44% 30.02 in 10.0 mi WNW 9.2 mph - N/A   Clear
5:53 PM 33.1 °F 25.5 °F 15.1 °F 48% 30.04 in 10.0 mi WNW 9.2 mph - N/A   Clear
6:53 PM 33.1 °F 26.9 °F 15.1 °F 48% 30.06 in 10.0 mi WNW 6.9 mph - N/A   Clear
7:53 PM 32.0 °F 25.6 °F 14.0 °F 48% 30.07 in 10.0 mi WNW 6.9 mph - N/A   Clear
8:53 PM 32.0 °F 26.4 °F 14.0 °F 48% 30.09 in 10.0 mi NW 5.8 mph - N/A   Clear
9:53 PM 30.0 °F 22.4 °F 16.0 °F 56% 30.10 in 10.0 mi WNW 8.1 mph - N/A   Clear
10:53 PM 30.9 °F 22.2 °F 16.0 °F 54% 30.11 in 10.0 mi WNW 10.4 mph - N/A   Clear
11:53 PM 30.0 °F 23.2 °F 15.1 °F 54% 30.11 in 10.0 mi WNW 6.9 mph - N/A   Clear